Hourly Data Report for September 20, 2017

All times are specified in Local Standard Time (LST). Add 1 hour to adjust for Daylight Saving Time where and when it is observed.

SATURNA ISLAND CS
BRITISH COLUMBIA

48°47'02.067" N
123°02'41.082" W
24.40 m
1017101
71473
WEZ

Download Data

Hourly Data (September 2017)
Hourly Data Report for September 20, 2017
Temp Definition
°C
Dew Point Temp Definition
°C
Rel Hum Definition
%
Wind Dir Definition
10's deg

Wind Spd Definition
km/h
Visibility Definition
km
Stn Press Definition
kPa
Hmdx Definition


Wind Chill Definition


Weather Definition


TIME
00:00 10.3 8.9 91 19 6   100.19     LegendNANA
01:00 10.0 8.7 92 24 4   100.14     LegendNANA
02:00 10.4 9.1 92 23 8   100.10     LegendNANA
03:00 10.5 9.2 92 22 9   100.07     LegendNANA
04:00 10.4 9.1 92 27 4   100.07     LegendNANA
05:00 10.2 9.0 93 27 5   100.09     LegendNANA
06:00 9.1 8.1 93 27 1   100.11     LegendNANA
07:00 10.4 9.4 94 28 3   100.13     LegendNANA
08:00 10.6 9.6 94 33 4   100.15     LegendNANA
09:00 10.9 9.9 94 27 4   100.20     LegendNANA
10:00 10.9 9.9 94 33 4   100.22     LegendNANA
11:00 10.9 9.9 94 31 4   100.27     LegendNANA
12:00 11.3 10.0 92 27 4   100.35     LegendNANA
13:00 13.6 10.5 81 29 6   100.31     LegendNANA
14:00 14.7 8.4 66 30 4   100.35     LegendNANA
15:00 15.1 8.2 63 29 5   100.36     LegendNANA
16:00 13.6 7.5 67 22 5   100.37     LegendNANA
17:00 12.5 7.5 71 21 2   100.43     LegendNANA
18:00 11.3 7.5 78 22 9   100.45     LegendNANA
19:00 11.2 7.8 80 22 14   100.47     LegendNANA
20:00 11.6 7.3 75 22 18   100.52     LegendNANA
21:00 11.3 7.6 78 22 17   100.54     LegendNANA
22:00 11.0 8.1 82 23 15   100.57     LegendNANA
23:00 10.7 8.5 86 21 11   100.61     LegendNANA

Notes on Data Quality.

Legend

  • E = Estimated
  • M = Missing
  • NA = Not Available
  • ‡ = Partner data that is not subject to review by the National Climate Archives
Date modified: